{"data":{"norad_id":62760,"intl_designator":"2025-015C","name":"STARLINK-33575","alt_names":[],"object_type":"PAYLOAD","status":"ACTIVE","operator":null,"country":"US","launch_date":"2025-01-21","launch_site_code":"AFWTR","launch_vehicle":null,"mission":null,"orbit_class":"UNKNOWN","rcs_meters":null,"size_class":null,"mass_kg":null,"dimensions":null,"purposes":["comms"],"wikipedia_slug":null,"has_3d_model":false,"image_url":null,"decayed_at":null,"tle_current":{"epoch":"2026-09-21T22:20:08.403648Z","epoch_age_seconds":47753,"freshness":"FRESH","line1":"1 62760U 25015C   26264.93065282  .00008233  00000+0  25455-3 0  9998","line2":"2 62760  53.1569 126.8594 0001306 114.1423 245.9717 15.34397382 93825","mean_motion":15.34397382,"eccentricity":0.0001306,"inclination_deg":53.1569,"raan_deg":126.8594,"arg_perigee_deg":114.1423,"mean_anomaly_deg":245.9717,"bstar":0.00025455,"rev_number":9382,"period_min":93.847918205064,"perigee_km":461.81760671428,"apogee_km":463.60443621749,"semimajor_km":6840.8480214659,"source":"CELESTRAK","updated_at":"2026-09-22T09:00:49.660807Z"}}}